TimeAKDT,TemperatureF,Dew PointF,Humidity,Sea Level PressureIn,VisibilityMPH,Wind Direction,Wind SpeedMPH,Gust SpeedMPH,PrecipitationIn,Events,Conditions,WindDirDegrees,DateUTC
12:16 AM,51.8,48.2,88,29.98,10.0,Calm,Calm,-,N/A,,Overcast,0,2013-09-14 08:16:00
12:36 AM,51.8,48.2,88,29.98,10.0,Calm,Calm,-,N/A,,Overcast,0,2013-09-14 08:36:00
12:56 AM,51.8,48.2,88,29.97,10.0,Calm,Calm,-,N/A,,Overcast,0,2013-09-14 08:56:00
1:16 AM,51.8,48.2,88,29.97,10.0,Calm,Calm,-,N/A,,Overcast,0,2013-09-14 09:16:00
1:36 AM,51.8,46.4,82,29.96,10.0,Calm,Calm,-,N/A,,Overcast,0,2013-09-14 09:36:00
1:56 AM,51.8,46.4,82,29.96,10.0,Calm,Calm,-,N/A,,Mostly Cloudy,0,2013-09-14 09:56:00
2:16 AM,50.0,46.4,87,29.96,10.0,Calm,Calm,-,N/A,,Mostly Cloudy,0,2013-09-14 10:16:00
2:36 AM,50.0,46.4,87,29.96,10.0,Calm,Calm,-,N/A,,Overcast,0,2013-09-14 10:36:00
2:56 AM,51.8,48.2,88,29.95,10.0,Calm,Calm,-,N/A,,Overcast,0,2013-09-14 10:56:00
3:16 AM,50.0,46.4,87,29.95,10.0,Calm,Calm,-,N/A,,Overcast,0,2013-09-14 11:16:00
3:36 AM,50.0,46.4,87,29.94,10.0,Calm,Calm,-,N/A,,Overcast,0,2013-09-14 11:36:00
3:56 AM,50.0,46.4,87,29.94,10.0,Calm,Calm,-,N/A,,Overcast,0,2013-09-14 11:56:00
4:16 AM,51.8,46.4,82,29.93,10.0,Calm,Calm,-,N/A,,Overcast,0,2013-09-14 12:16:00
4:36 AM,51.8,46.4,82,29.93,10.0,Calm,Calm,-,N/A,,Overcast,0,2013-09-14 12:36:00
4:56 AM,50.0,48.2,94,29.93,10.0,Calm,Calm,-,N/A,,Overcast,0,2013-09-14 12:56:00
5:16 AM,51.8,46.4,82,29.93,10.0,Calm,Calm,-,N/A,,Overcast,0,2013-09-14 13:16:00
5:36 AM,50.0,46.4,87,29.92,10.0,Calm,Calm,-,N/A,,Overcast,0,2013-09-14 13:36:00
5:56 AM,50.0,46.4,87,29.92,10.0,Calm,Calm,-,N/A,,Overcast,0,2013-09-14 13:56:00
6:16 AM,50.0,46.4,87,29.92,10.0,Calm,Calm,-,N/A,,Overcast,0,2013-09-14 14:16:00
6:36 AM,50.0,48.2,94,29.91,10.0,Calm,Calm,-,N/A,,Overcast,0,2013-09-14 14:36:00
6:56 AM,50.0,48.2,94,29.92,10.0,Calm,Calm,-,N/A,,Overcast,0,2013-09-14 14:56:00
7:16 AM,50.0,48.2,94,29.91,10.0,Calm,Calm,-,N/A,,Overcast,0,2013-09-14 15:16:00
7:36 AM,50.0,48.2,94,29.91,10.0,Calm,Calm,-,N/A,,Overcast,0,2013-09-14 15:36:00
7:56 AM,51.8,48.2,88,29.91,10.0,Calm,Calm,-,N/A,,Overcast,0,2013-09-14 15:56:00
8:16 AM,51.8,48.2,88,29.91,10.0,Calm,Calm,-,N/A,,Overcast,0,2013-09-14 16:16:00
8:36 AM,51.8,48.2,88,29.91,10.0,Calm,Calm,-,N/A,,Overcast,0,2013-09-14 16:36:00
8:56 AM,53.6,48.2,82,29.91,10.0,Calm,Calm,-,N/A,,Overcast,0,2013-09-14 16:56:00
9:36 AM,53.6,50.0,88,29.91,10.0,Calm,Calm,-,N/A,,Overcast,0,2013-09-14 17:36:00
9:56 AM,55.4,50.0,82,29.91,10.0,Calm,Calm,-,N/A,,Scattered Clouds,0,2013-09-14 17:56:00
10:16 AM,55.4,50.0,82,29.91,10.0,Calm,Calm,-,N/A,,Clear,0,2013-09-14 18:16:00
10:36 AM,57.2,50.0,77,29.89,10.0,ESE,3.5,-,N/A,,Scattered Clouds,110,2013-09-14 18:36:00
10:56 AM,57.2,51.8,82,29.89,10.0,Calm,Calm,-,N/A,,Overcast,0,2013-09-14 18:56:00
11:16 AM,59.0,51.8,77,29.89,10.0,Calm,Calm,-,N/A,,Overcast,0,2013-09-14 19:16:00
11:36 AM,60.8,51.8,72,29.89,10.0,Calm,Calm,-,N/A,,Overcast,0,2013-09-14 19:36:00
11:56 AM,59.0,51.8,77,29.89,10.0,SSW,4.6,-,N/A,,Overcast,200,2013-09-14 19:56:00
12:16 PM,57.2,51.8,82,29.89,10.0,SSW,3.5,-,N/A,,Overcast,200,2013-09-14 20:16:00
12:36 PM,57.2,51.8,82,29.89,10.0,Calm,Calm,-,N/A,,Overcast,0,2013-09-14 20:36:00
12:56 PM,57.2,51.8,82,29.89,10.0,SW,3.5,-,N/A,,Overcast,230,2013-09-14 20:56:00
1:16 PM,59.0,51.8,77,29.88,10.0,WSW,4.6,-,N/A,,Overcast,250,2013-09-14 21:16:00
1:36 PM,59.0,51.8,77,29.88,10.0,WSW,5.8,-,N/A,,Overcast,240,2013-09-14 21:36:00
1:56 PM,60.8,51.8,72,29.88,10.0,WNW,5.8,-,N/A,,Overcast,300,2013-09-14 21:56:00
2:16 PM,60.8,51.8,72,29.88,10.0,NW,4.6,-,N/A,,Overcast,320,2013-09-14 22:16:00
2:36 PM,60.8,51.8,72,29.88,10.0,NNW,5.8,-,N/A,,Overcast,330,2013-09-14 22:36:00
2:56 PM,60.8,51.8,72,29.87,10.0,NW,3.5,-,N/A,,Overcast,310,2013-09-14 22:56:00
3:16 PM,60.8,51.8,72,29.87,10.0,West,4.6,-,N/A,,Overcast,270,2013-09-14 23:16:00
3:36 PM,60.8,51.8,72,29.87,10.0,Calm,Calm,-,N/A,,Overcast,0,2013-09-14 23:36:00
3:56 PM,60.8,51.8,72,29.87,10.0,WSW,3.5,-,N/A,,Overcast,250,2013-09-14 23:56:00
4:16 PM,60.8,50.0,68,29.86,10.0,NW,3.5,-,N/A,,Overcast,310,2013-09-15 00:16:00
4:36 PM,60.8,50.0,68,29.86,10.0,WNW,3.5,-,N/A,,Overcast,300,2013-09-15 00:36:00
4:56 PM,60.8,50.0,68,29.85,10.0,NW,5.8,-,N/A,,Overcast,310,2013-09-15 00:56:00
5:16 PM,60.8,50.0,68,29.85,10.0,WNW,5.8,-,N/A,,Overcast,290,2013-09-15 01:16:00
5:36 PM,60.8,50.0,68,29.85,10.0,WNW,3.5,-,N/A,,Mostly Cloudy,290,2013-09-15 01:36:00
5:56 PM,59.0,50.0,72,29.85,10.0,WNW,3.5,-,N/A,,Partly Cloudy,300,2013-09-15 01:56:00
6:16 PM,57.2,48.2,72,29.84,10.0,Calm,Calm,-,N/A,,Clear,0,2013-09-15 02:16:00
6:36 PM,57.2,48.2,72,29.84,10.0,WNW,3.5,-,N/A,,Clear,300,2013-09-15 02:36:00
6:56 PM,57.2,48.2,72,29.84,10.0,WSW,4.6,-,N/A,,Clear,250,2013-09-15 02:56:00
7:16 PM,55.4,48.2,77,29.84,10.0,Calm,Calm,-,N/A,,Clear,0,2013-09-15 03:16:00
7:36 PM,53.6,48.2,82,29.84,10.0,Calm,Calm,-,N/A,,Partly Cloudy,0,2013-09-15 03:36:00
7:56 PM,53.6,48.2,82,29.84,10.0,Calm,Calm,-,N/A,,Scattered Clouds,0,2013-09-15 03:56:00
8:16 PM,53.6,48.2,82,29.84,10.0,Calm,Calm,-,N/A,,Mostly Cloudy,0,2013-09-15 04:16:00
8:36 PM,51.8,48.2,88,29.84,10.0,West,3.5,-,N/A,,Overcast,260,2013-09-15 04:36:00
8:56 PM,51.8,48.2,88,29.83,10.0,Calm,Calm,-,N/A,,Mostly Cloudy,0,2013-09-15 04:56:00
9:16 PM,51.8,46.4,82,29.83,10.0,Calm,Calm,-,N/A,,Partly Cloudy,0,2013-09-15 05:16:00
9:36 PM,50.0,46.4,87,29.83,10.0,Calm,Calm,-,N/A,,Clear,0,2013-09-15 05:36:00
9:56 PM,48.2,46.4,93,29.83,10.0,Calm,Calm,-,N/A,,Clear,0,2013-09-15 05:56:00
10:16 PM,48.2,46.4,93,29.82,10.0,Calm,Calm,-,N/A,,Clear,0,2013-09-15 06:16:00
10:36 PM,48.2,44.6,87,29.81,10.0,Calm,Calm,-,N/A,,Clear,0,2013-09-15 06:36:00
10:56 PM,46.4,44.6,93,29.81,9.0,Calm,Calm,-,N/A,,Clear,0,2013-09-15 06:56:00
11:16 PM,46.4,44.6,93,29.81,10.0,Calm,Calm,-,N/A,,Clear,0,2013-09-15 07:16:00
11:36 PM,46.4,44.6,93,29.81,10.0,Calm,Calm,-,N/A,,Clear,0,2013-09-15 07:36:00
11:56 PM,44.6,42.8,93,29.81,10.0,Calm,Calm,-,N/A,,Clear,0,2013-09-15 07:56:00